When you browse on this site, cookies collect data to enhance your experience and personalize the content and advertising you see.
Visit our Privacy Policy to learn more. By continuing to use the site, you agree to this use of cookies and data.
  • In Hungary
  • List of Countries
  • For 7 days
  • Water Temperature
  • Weather Map
  • News
  • Weather Widgets
  • user-avatar
    Login

    Hourly Weather Witten

    Today, 11 December, Wednesday

    Time Temperature Precipitation Wind Pressure Humidity
    00:00 +3°C° 0.1 mm 7 mps 751 mmHg 64%
    01:00 +3°C° 0.2 mm 7 mps 750 mmHg 67%
    02:00 +3°C° 0.2 mm 7 mps 750 mmHg 70%
    03:00 +3°C° 0.2 mm 6 mps 749 mmHg 73%
    04:00 +3°C° 0.4 mm 6 mps 749 mmHg 77%
    05:00 +2°C° 0.4 mm 5 mps 749 mmHg 80%
    06:00 +2°C° 0.4 mm 5 mps 749 mmHg 84%
    07:00 +3°C° 0.6 mm 4 mps 749 mmHg 86%
    08:00 +3°C° 0.6 mm 4 mps 748 mmHg 87%
    09:00 +3°C° 0.6 mm 3 mps 748 mmHg 89%
    10:00 +3°C° 0.5 mm 3 mps 748 mmHg 89%
    11:00 +3°C° 0.5 mm 3 mps 747 mmHg 89%
    12:00 +4°C° 0.5 mm 3 mps 747 mmHg 90%
    13:00 +5°C° 0.4 mm 2 mps 746 mmHg 91%
    14:00 +4°C° 0.4 mm 2 mps 746 mmHg 92%
    15:00 +4°C° 0.4 mm 2 mps 745 mmHg 92%
    16:00 +4°C° 0.1 mm 2 mps 745 mmHg 93%
    17:00 +4°C° 0.1 mm 2 mps 745 mmHg 93%
    18:00 +4°C° 0.1 mm 2 mps 745 mmHg 93%
    19:00 +4°C° 0 mm 2 mps 745 mmHg 92%
    20:00 +4°C° 0 mm 2 mps 745 mmHg 91%
    21:00 +3°C° 0 mm 2 mps 744 mmHg 91%
    22:00 +3°C° 0 mm 2 mps 744 mmHg 90%
    23:00 +3°C° 0 mm 2 mps 744 mmHg 89%

    Tomorrow, 12 December, Thursday

    Time Temperature Precipitation Wind Pressure Humidity
    00:00 +2°C° 0 mm 3 mps 744 mmHg 88%
    01:00 +2°C° 0 mm 3 mps 743 mmHg 88%
    02:00 +2°C° 0 mm 3 mps 743 mmHg 87%
    03:00 +3°C° 0 mm 3 mps 743 mmHg 87%
    04:00 +3°C° 0.1 mm 3 mps 743 mmHg 88%
    05:00 +3°C° 0.1 mm 3 mps 743 mmHg 89%
    06:00 +2°C° 0.1 mm 3 mps 743 mmHg 90%
    07:00 +2°C° 0 mm 3 mps 743 mmHg 88%
    08:00 +1°C° 0 mm 4 mps 743 mmHg 86%
    09:00 +1°C° 0 mm 4 mps 743 mmHg 84%
    10:00 +3°C° 0 mm 4 mps 743 mmHg 81%
    11:00 +3°C° 0 mm 4 mps 743 mmHg 77%
    12:00 +3°C° 0 mm 4 mps 743 mmHg 74%
    13:00 +3°C° 0 mm 4 mps 742 mmHg 75%
    14:00 +3°C° 0 mm 4 mps 741 mmHg 75%
    15:00 +3°C° 0 mm 3 mps 740 mmHg 75%
    16:00 +1°C° 0 mm 4 mps 740 mmHg 76%
    17:00 +1°C° 0 mm 4 mps 739 mmHg 77%
    18:00 0°C° 0 mm 5 mps 738 mmHg 78%
    19:00 -1°C° 0 mm 6 mps 737 mmHg 76%
    20:00 -1°C° 0 mm 6 mps 735 mmHg 75%
    21:00 -1°C° 0 mm 6 mps 733 mmHg 73%
    22:00 -1°C° 0.1 mm 7 mps 731 mmHg 76%
    23:00 -1°C° 0.1 mm 7 mps 729 mmHg 78%

    Day after tomorrow, 13 December, Friday

    Time Temperature Precipitation Wind Pressure Humidity
    00:00 -1°C° 0.1 mm 8 mps 727 mmHg 80%
    01:00 0°C° 1.5 mm 8 mps 726 mmHg 84%
    02:00 0°C° 1.5 mm 8 mps 724 mmHg 87%
    03:00 0°C° 1.5 mm 7 mps 722 mmHg 91%
    04:00 +2°C° 0.9 mm 6 mps 722 mmHg 91%
    05:00 +2°C° 0.9 mm 5 mps 722 mmHg 91%
    06:00 +4°C° 0.9 mm 4 mps 721 mmHg 91%
    07:00 +3°C° 0.4 mm 5 mps 721 mmHg 90%
    08:00 +3°C° 0.4 mm 5 mps 722 mmHg 90%
    09:00 +2°C° 0.4 mm 5 mps 722 mmHg 89%
    10:00 +3°C° 0.2 mm 6 mps 723 mmHg 87%
    11:00 +3°C° 0.2 mm 6 mps 723 mmHg 85%
    12:00 +3°C° 0.2 mm 6 mps 723 mmHg 83%
    13:00 +3°C° 1 mm 6 mps 724 mmHg 86%
    14:00 +2°C° 1 mm 6 mps 724 mmHg 90%
    15:00 +2°C° 1 mm 6 mps 724 mmHg 93%
    16:00 +2°C° 1.2 mm 6 mps 725 mmHg 92%
    17:00 +3°C° 1.2 mm 6 mps 726 mmHg 90%
    18:00 +3°C° 1.2 mm 6 mps 727 mmHg 89%
    19:00 +3°C° 0.6 mm 6 mps 727 mmHg 87%
    20:00 +3°C° 0.6 mm 7 mps 728 mmHg 85%
    21:00 +4°C° 0.6 mm 7 mps 729 mmHg 84%
    22:00 +4°C° 0.1 mm 6 mps 730 mmHg 84%
    23:00 +4°C° 0.1 mm 6 mps 730 mmHg 84%

    14 December, Saturday

    Time Temperature Precipitation Wind Pressure Humidity
    00:00 +5°C° 0.1 mm 5 mps 731 mmHg 84%
    01:00 +3°C° 0.5 mm 6 mps 730 mmHg 86%
    02:00 +3°C° 0.5 mm 6 mps 730 mmHg 88%
    03:00 +2°C° 0.5 mm 6 mps 729 mmHg 90%
    04:00 +3°C° 0.5 mm 7 mps 729 mmHg 82%
    05:00 +4°C° 0.5 mm 8 mps 728 mmHg 75%
    06:00 +5°C° 0.5 mm 9 mps 728 mmHg 67%
    07:00 +5°C° 0 mm 10 mps 729 mmHg 65%
    08:00 +3°C° 0 mm 10 mps 730 mmHg 63%
    09:00 +3°C° 0 mm 10 mps 731 mmHg 61%
    10:00 +3°C° 0 mm 9 mps 732 mmHg 59%
    11:00 +5°C° 0 mm 8 mps 732 mmHg 57%
    12:00 +5°C° 0 mm 8 mps 733 mmHg 56%
    13:00 +4°C° 0.3 mm 7 mps 734 mmHg 65%
    14:00 +3°C° 0.3 mm 7 mps 734 mmHg 74%
    15:00 +3°C° 0.3 mm 7 mps 734 mmHg 84%
    16:00 +3°C° 0.3 mm 7 mps 735 mmHg 81%
    17:00 +3°C° 0.3 mm 6 mps 736 mmHg 77%
    18:00 +3°C° 0.3 mm 6 mps 737 mmHg 74%
    19:00 +2°C° 0 mm 6 mps 738 mmHg 73%
    20:00 +2°C° 0 mm 6 mps 739 mmHg 71%
    21:00 +2°C° 0 mm 6 mps 740 mmHg 69%
    22:00 +2°C° 0 mm 6 mps 740 mmHg 72%
    23:00 +2°C° 0 mm 5 mps 740 mmHg 76%

    15 December, Sunday

    Time Temperature Precipitation Wind Pressure Humidity
    00:00 +2°C° 0 mm 5 mps 740 mmHg 79%
    01:00 +2°C° 0 mm 5 mps 740 mmHg 80%
    02:00 +3°C° 0 mm 4 mps 739 mmHg 80%
    03:00 +3°C° 0 mm 4 mps 739 mmHg 80%
    04:00 +2°C° 0.8 mm 5 mps 738 mmHg 83%
    05:00 +3°C° 0.8 mm 6 mps 736 mmHg 86%
    06:00 +3°C° 0.8 mm 7 mps 735 mmHg 90%
    07:00 +4°C° 0.9 mm 8 mps 735 mmHg 83%
    08:00 +5°C° 0.9 mm 9 mps 735 mmHg 77%
    09:00 +5°C° 0.9 mm 9 mps 736 mmHg 70%
    10:00 +5°C° 0 mm 9 mps 737 mmHg 66%
    11:00 +5°C° 0 mm 9 mps 739 mmHg 63%
    12:00 +5°C° 0 mm 9 mps 741 mmHg 59%
    13:00 +5°C° 0 mm 9 mps 741 mmHg 62%
    14:00 +5°C° 0 mm 8 mps 742 mmHg 65%
    15:00 +5°C° 0 mm 7 mps 743 mmHg 69%
    16:00 +4°C° 0 mm 7 mps 744 mmHg 69%
    17:00 +4°C° 0 mm 7 mps 745 mmHg 69%
    18:00 +4°C° 0 mm 6 mps 745 mmHg 70%
    19:00 +4°C° 0 mm 6 mps 746 mmHg 70%
    20:00 +3°C° 0 mm 6 mps 747 mmHg 71%
    21:00 +3°C° 0 mm 5 mps 747 mmHg 71%
    22:00 +3°C° 0 mm 5 mps 747 mmHg 72%
    23:00 +3°C° 0 mm 5 mps 748 mmHg 73%

    16 December, Monday

    Time Temperature Precipitation Wind Pressure Humidity
    00:00 +3°C° 0 mm 5 mps 748 mmHg 74%
    01:00 +3°C° 0 mm 5 mps 748 mmHg 76%
    02:00 +4°C° 0 mm 4 mps 748 mmHg 78%
    03:00 +4°C° 0 mm 4 mps 749 mmHg 80%
    04:00 +4°C° 0 mm 4 mps 749 mmHg 81%
    05:00 +4°C° 0 mm 4 mps 749 mmHg 82%
    06:00 +4°C° 0 mm 3 mps 750 mmHg 82%
    07:00 +4°C° 0 mm 3 mps 750 mmHg 81%
    08:00 +4°C° 0 mm 3 mps 750 mmHg 81%
    09:00 +4°C° 0 mm 3 mps 750 mmHg 80%
    10:00 +5°C° 0 mm 4 mps 750 mmHg 79%
    11:00 +5°C° 0 mm 4 mps 750 mmHg 78%
    12:00 +6°C° 0 mm 4 mps 750 mmHg 77%
    13:00 +7°C° 0 mm 3 mps 749 mmHg 79%
    14:00 +7°C° 0 mm 3 mps 749 mmHg 81%
    15:00 +5°C° 0 mm 3 mps 749 mmHg 83%
    16:00 +7°C° 0.1 mm 3 mps 748 mmHg 85%
    17:00 +7°C° 0.1 mm 3 mps 748 mmHg 86%
    18:00 +6°C° 0.1 mm 4 mps 747 mmHg 88%
    19:00 +6°C° 0.7 mm 4 mps 747 mmHg 88%
    20:00 +7°C° 0.7 mm 4 mps 747 mmHg 89%
    21:00 +7°C° 0.7 mm 4 mps 746 mmHg 89%
    22:00 +7°C° 0.6 mm 4 mps 746 mmHg 86%
    23:00 +8°C° 0.6 mm 4 mps 745 mmHg 83%
    Show more